Regional Weather Roundup
Issued by NWS

Home | Current Version | Previous Version | Graphics & Text | Print | Product List | Glossary On
Versions: 1 2 3 4 5 6 7 8 9 10 11 12 13 14 15 16 17 18 19 20 21 22 23 24 25 26 27 28 29 30 31 32 33 34 35 36 37 38 39 40 41 42 43 44 45 46 47 48 49 50
000
ASUS43 KBIS 221402
RWRND

NORTH DAKOTA REGIONAL WEATHER ROUNDUP
NATIONAL WEATHER SERVICE BISMARCK ND
900 AM CDT SAT APR 22 2017

NOTE: "FAIR" INDICATES FEW OR NO CLOUDS BELOW 12,000 FEET WITH NO
SIGNIFICANT WEATHER AND/OR OBSTRUCTIONS TO VISIBILITY.


NDZ001>003-009>011-017-221500-
NORTHWEST NORTH DAKOTA

CITY           SKY/WX    TMP DP  RH WIND       PRES   REMARKS
WILLISTON      CLOUDY    46  43  89 NE10      30.20R FOG
MINOT          PTSUNNY   45  42  89 NW14      30.18R
MINOT AFB      LGT RAIN  43  43 100 N17G24    30.18R FOG
$$

NDZ018>021-031>035-040>046-221500-
SOUTHWEST NORTH DAKOTA

CITY           SKY/WX    TMP DP  RH WIND       PRES   REMARKS
BISMARCK       FAIR      47  39  74 S3        30.22F
DICKINSON      FAIR      46  40  79 S6        30.18S
GARRISON         N/A     46  38  73 S8        30.17S
HETTINGER ARPT SUNNY     44  37  76 SW10      30.22F
$$

NDZ004>008-012>016-024-026-027-054-221500-
NORTHEAST NORTH DAKOTA

CITY           SKY/WX    TMP DP  RH WIND       PRES   REMARKS
GRAND FORKS    PTSUNNY   53  43  68 W6        30.17F
GRND FRKS AFB  PTSUNNY   51  41  67 N7        30.18S
DEVILS LAKE    FAIR      50  39  66 W13       30.17S
$$

NDZ022-023-025-028>030-036>039-047>053-221500-
SOUTHEAST NORTH DAKOTA

CITY           SKY/WX    TMP DP  RH WIND       PRES   REMARKS
FARGO          SUNNY     52  41  66 SW14      30.21F
JAMESTOWN      FAIR      50  41  71 SW12      30.20F
$$





USA.gov is the U.S. government's official web portal to all federal, state and local government web resources and services.